{"data":{"norad_id":42801,"epoch":"2026-05-25T02:02:32.601120Z","epoch_age_seconds":64106,"freshness":"FRESH","line1":"1 42801U 17038A   26145.08509955  .00000000  00000+0  00000+0 0  9991","line2":"2 42801   0.0197  57.9077 0003546  21.4159 195.8855  1.00267545 32612","mean_motion":1.00267545,"eccentricity":0.0003546,"inclination_deg":0.0197,"raan_deg":57.9077,"arg_perigee_deg":21.4159,"mean_anomaly_deg":195.8855,"bstar":0,"rev_number":3261,"period_min":1436.1576320633,"perigee_km":35772.831593538,"apogee_km":35802.735664448,"semimajor_km":42165.920628993,"source":"CELESTRAK","updated_at":"2026-05-25T13:38:14.045918Z"}}